Weather History for Detroit, MI

Change the Weather History Date:

Sunday, October 14, 2012

  Actual Average Record
Temperature  
Mean Temperature 64 °F -  
Max Temperature 69 °F 62 °F 84 °F (1975)
Min Temperature 60 °F 46 °F 31 °F (1993)
Growing Degree Days 14 (Base 50)    
Moisture  
Dew Point 60 °F    
Average Humidity 84    
Maximum Humidity 100    
Minimum Humidity 70    
Precipitation  
Precipitation 0.10 in - - ()
Sea Level Pressure  
Sea Level Pressure 29.71 in    
Wind  
Wind Speed 12 mph (SSW)    
Max Wind Speed 25 mph    
Max Gust Speed 44 mph    
Visibility 8 miles    
Events Rain    
Averages and records for this station are not official NWS values.
T = Trace of Precipitation, MM = Missing Value Source: NWS Daily Summary

Daily Weather History Graph

Daily Weather History Graph

Search for Another Location

Airport:

Trip Planner

Search our weather history database for the weather conditions in past years. The results will help you decide how hot, cold, wet, or windy it might be!

Date:

Astronomy

Oct. 14, 2012 Rise Set
Actual Time 7:44 AM EDT 6:50 PM EDT
Civil Twilight 7:16 AM EDT 7:19 PM EDT
Nautical Twilight 6:43 AM EDT 7:51 PM EDT
Astronomical Twilight 6:10 AM EDT 8:24 PM EDT
Moon 6:41 AM EDT (10/14) 6:09 PM EDT (10/14)
Length of Visible Light 12h 03m
Length of Day
11h 06m
Waning Crescent, 1% of the Moon is Illuminated
Oct 14
Waning Crescent
Oct 15
New
Oct 21
First Quarter
Oct 29
Full
Nov 6
Last Quarter

Hourly Weather History & Observations

Time (EDT) Temp. Dew Point Humidity Pressure Visibility Wind Dir Wind Speed Gust Speed Precip Events Conditions
12:53 AM 61.0 °F - N/A% 29.90 in 5.0 mi SW 9.2 mph - 0.05 in Rain Light Rain
1:02 AM 60.8 °F - N/A% 29.89 in 5.0 mi SW 9.2 mph - 0.00 in Rain Light Rain
1:16 AM 60.8 °F - N/A% 29.89 in 5.0 mi SW 8.1 mph - 0.00 in   Haze
1:53 AM 61.0 °F 61.0 °F 100% 29.88 in 6.0 mi SSW 6.9 mph - 0.00 in   Overcast
2:53 AM 62.1 °F 62.1 °F 100% 29.88 in 4.0 mi SSW 9.2 mph - N/A   Overcast
3:40 AM 62.6 °F 60.8 °F 94% 29.86 in 5.0 mi SSW 6.9 mph - 0.01 in   Mostly Cloudy
3:53 AM 62.1 °F 61.0 °F 96% 29.86 in 6.0 mi SW 8.1 mph - 0.01 in   Mostly Cloudy
4:35 AM 62.6 °F 62.6 °F 100% 29.85 in 6.0 mi SSW 8.1 mph - 0.00 in Rain Light Rain
4:53 AM 63.0 °F 62.1 °F 97% 29.86 in 6.0 mi SSW 9.2 mph - 0.00 in Rain Light Rain
5:53 AM 63.0 °F 62.1 °F 97% 29.85 in 6.0 mi South 5.8 mph - 0.00 in   Overcast
6:53 AM 64.0 °F 62.1 °F 93% 29.85 in 7.0 mi SSW 5.8 mph - N/A   Mostly Cloudy
7:11 AM 62.6 °F 60.8 °F 94% 29.84 in 7.0 mi South 6.9 mph - N/A   Mostly Cloudy
7:53 AM 63.0 °F 61.0 °F 93% 29.83 in 8.0 mi SSW 11.5 mph - N/A   Mostly Cloudy
8:13 AM 64.4 °F 60.8 °F 88% 29.82 in 7.0 mi SSW 13.8 mph - N/A   Partly Cloudy
8:53 AM 64.0 °F 60.1 °F 87% 29.82 in 9.0 mi SSW 13.8 mph 20.7 mph N/A   Mostly Cloudy
9:53 AM 64.9 °F 60.1 °F 84% 29.80 in 10.0 mi SSW 16.1 mph 23.0 mph N/A   Mostly Cloudy
10:10 AM 64.4 °F 59.0 °F 83% 29.79 in 10.0 mi South 11.5 mph 26.5 mph N/A   Mostly Cloudy
10:53 AM 64.9 °F 59.0 °F 81% 29.77 in 10.0 mi South 17.3 mph 24.2 mph N/A   Partly Cloudy
11:53 AM 66.9 °F 59.0 °F 76% 29.71 in 10.0 mi South 21.9 mph 33.4 mph N/A   Clear
12:53 PM 69.1 °F 59.0 °F 70% 29.69 in 10.0 mi SSW 17.3 mph 31.1 mph 0.00 in Rain Light Rain
1:53 PM 66.9 °F 59.0 °F 76% 29.69 in 9.0 mi SSW 18.4 mph 29.9 mph 0.01 in Rain Light Rain
2:53 PM 66.9 °F 57.9 °F 73% 29.66 in 10.0 mi SSW 23.0 mph 33.4 mph 0.00 in Rain Light Rain
3:53 PM 66.2 °F 60.8 °F 83% 29.62 in 9.0 mi SSW 19.6 mph 28.8 mph N/A Rain Light Rain
4:53 PM 68.0 °F 60.1 °F 76% 29.57 in 10.0 mi South 20.7 mph 31.1 mph 0.00 in   Clear
5:53 PM 68.0 °F 59.0 °F 73% 29.55 in 10.0 mi South 17.3 mph 31.1 mph N/A   Mostly Cloudy
6:53 PM 66.9 °F 59.0 °F 76% 29.53 in 10.0 mi SSW 16.1 mph 32.2 mph N/A   Partly Cloudy
7:53 PM 66.9 °F 60.1 °F 79% 29.51 in 10.0 mi SSW 17.3 mph 34.5 mph 0.01 in Rain Light Rain
8:53 PM 64.9 °F 59.0 °F 81% 29.48 in 10.0 mi SSW 21.9 mph 32.2 mph 0.02 in   Clear
9:53 PM 66.0 °F 57.9 °F 75% 29.45 in 10.0 mi South 20.7 mph 27.6 mph N/A   Unknown
9:58 PM 66.2 °F 57.2 °F 73% 29.45 in 10.0 mi SSW 15.0 mph 26.5 mph N/A   Overcast
10:53 PM 64.9 °F 55.9 °F 73% 29.44 in 10.0 mi SW 18.4 mph 33.4 mph N/A   Overcast
11:50 PM 62.6 °F 53.6 °F 72% 29.45 in 10.0 mi WSW 24.2 mph 43.7 mph N/A   Overcast
11:53 PM 62.1 °F 53.1 °F 72% 29.45 in 10.0 mi WSW 25.3 mph 39.1 mph N/A   Overcast